Погода в Алоли

Россия / Псковская область     56°27′20″N   29°06′55″E
темп.,
°C
ветер,
м/с
пор.,
м/с
влажн.,
%
обл.,
%
осадки,
мм/ч
давл.,
гПа
погр.,
м
1 июля, пт
пт100:00+16в24700 0.0 102165
03:00+14в22681 0.0 102122
06:00+15в23724 0.0 102162
09:00+22в23495 0.0 1021444
12:00+27вюв23335 0.0 10211556
15:00+29вюв2330100 0.0 10202042
18:00+28вюв2241100 0.0 10192076
21:00+22в2269100 0.0 102018
2 июля, сб
сб200:00+19в1173100 0.0 102111
03:00+16юв279120 0.0 1022147
06:00+17юв268872 0.0 1022161
09:00+23юв23595 0.0 1022407
12:00+27ююв2246100 0.0 10211276
15:00+29ююз224099 0.0 10212084
18:00+28ююз1245100 0.0 10202010
21:00+23зюз227395 0.0 102017
3 июля, вс
вс300:00+19ююз11825 0.0 102011
03:00+18ююз118948 0.0 102011
06:00+19ююз13875 0.0 101991
09:00+24юз22618 0.0 1019510
12:00+28зюз33445 0.0 10191868
15:00+30зюз233738 0.0 10172684
18:00+26зсз476298 0.0 1017469
21:00+22сз25869 0.2 1018146
4 июля, пн
пн400:00+18сз2499100 2.5 101895
03:00+18сз1299100 3.1 101848
06:00+18зсз129819 0.1 101891
09:00+22з11795 0.1 1018471
12:00+25ююз226666 0.6 10171196
15:00+23ююз3685100 3.1 1016488
18:00+23юз267997 0.7 1016620
21:00+20юз269364 2.3 1015156
5 июля, вт
вт500:00+18юз129782 0.0 101624
03:00+17зюз239788 0.1 101668
06:00+17зюз2596100 0.0 1016135
09:00+21з24744 0.0 1016472
12:00+25з45451 0.0 10161617
15:00+26з5841100 0.0 10152344
18:00+23з4646100 0.0 10161718
21:00+18з2672100 0.0 1016154